User: anonymous   Login
Location: Unspecified
(0.0000°N, 0.0000°E)
Time: 02:48:57
(UTC+00:00)
Language:

TABLETSAT AURORA - Orbit

View from above orbital plane
View from above orbital plane
View from above satellite
View from above satellite

Ground track
Ground track

The orbit data is extracted from the following two-line orbital elements,

1 40017U 14033H   17232.55234202 +.00000296 +00000-0 +34214-4 0  9996
2 40017 097.9415 153.6734 0024998 113.0461 247.3397 14.92822194172564
Epoch (UTC): 20 August 2017 13:15:22
Eccentricity: 0.0024998
inclination: 97.9415°
perigee height: 572 km
apogee height: 606 km
right ascension of ascending node: 153.6734°
argument of perigee: 113.0461°
revolutions per day: 14.92822194
mean anomaly at epoch: 247.3397°
orbit number at epoch: 17256

The dashed part of the orbit path shows where the satellite is in the earth's shadow,  

DLR